Погода в Беляевке

Украина / Херсонская область     47°19′28″N   33°42′06″E
темп.,
°C
ветер,
м/с
пор.,
м/с
влажн.,
%
обл.,
%
осадки,
мм/ч
давл.,
гПа
погр.,
м
17 сентября, пт
пт1700:00+15св11460 0.0 101844
03:00+14ссв11545 0.0 101840
06:00+14юв115756 0.0 101720
09:00+18ю223836 0.0 1017291
12:00+23ю332949 0.0 10161436
15:00+24ю3428100 0.0 10141458
18:00+22юв3333100 0.0 101359
21:00+18юз494454 0.0 1013161
18 сентября, сб
сб1800:00+16ю495886 0.0 1013192
03:00+16ююз3759100 0.0 1012201
06:00+17юв3556100 0.0 1011178
09:00+20ю6950100 0.0 1011708
12:00+20ю5947100 0.1 1011983
15:00+16ю71288100 3.6 1010819
18:00+17ююв61175100 5.1 1009687
21:00+17ю71484100 9.2 1009754
19 сентября, вс
вс1900:00+17юз359383 0.6 1009143
03:00+15сз359387 0.7 1009102
06:00+14ссз339346 0.0 100958
09:00+18всв1176100 0.0 1010222
12:00+22ююз3455100 0.0 1010794
15:00+21юз37608 0.2 1009532
18:00+22юз594811 0.0 1008398
21:00+18з59565 0.0 1009230
20 сентября, пн
пн2000:00+15сз477489 0.0 1010232
03:00+13сз367325 0.0 1011164
06:00+13сз2565100 0.0 1011214
09:00+14зсз2357100 0.0 1011360
12:00+17з4549100 0.0 10121006
15:00+17з68495 0.0 10111182
18:00+15зсз79525 0.0 10121111
21:00+12зсз610675 0.0 1015570
21 сентября, вт
вт2100:00+10з48786 0.0 1016276
03:00+10з48805 0.0 1016220
06:00+9з4108451 0.0 1018341
09:00+11зсз695960 0.0 1018687
12:00+15з68445 0.0 10181334
15:00+17з794232 0.0 10171774
18:00+16зсз57405 0.0 1017903
21:00+11ссз595869 0.0 1019404